Location: Passo di Treia
(43.2833°N, 13.3333°E)
Time: 15:59:29
(UTC+00:00)

Cosmos 407 Rocket - Pass Details

Date: 09 December 2019
Orbit: 743 x 787 km, 74.0° (Epoch: 25 January)

Event Time Altitude Azimuth Distance (km) Brightness Sun altitude
Rises 16:42:10 0° 167° (SSE) 3,184 6.8 -12.5°
Reaches altitude 10° 16:44:48 10° 156° (SSE) 2,271 5.9 -13.0°
Maximum altitude 16:49:06 27° 99° (E) 1,424 4.4 -13.7°
Enters shadow 16:51:14 21° 62° (ENE) 1,687 4.7 -14.1°
